• In Latvia
  • List of Countries
  • For 7 days
  • Water Temperature
  • Satellite Maps
  • Weather Map
  • Weather Widgets
  • user-avatar
    Login

    Hourly Weather Calmatui

    Today, 22 August, Wednesday

    Time Temperature Precipitation Wind Pressure Humidity
    00:00 +25°C° 0.1 mm 2 mps 758 mmHg 65%
    01:00 +24°C° 0.1 mm 3 mps 759 mmHg 71%
    02:00 +22°C° 0.1 mm 3 mps 759 mmHg 78%
    03:00 +22°C° 0 mm 3 mps 759 mmHg 80%
    04:00 +21°C° 0 mm 3 mps 759 mmHg 82%
    05:00 +21°C° 0 mm 3 mps 759 mmHg 85%
    06:00 +22°C° 0 mm 3 mps 760 mmHg 78%
    07:00 +23°C° 0 mm 4 mps 760 mmHg 72%
    08:00 +26°C° 0 mm 4 mps 760 mmHg 65%
    09:00 +27°C° 0 mm 4 mps 760 mmHg 58%
    10:00 +29°C° 0 mm 4 mps 760 mmHg 51%
    11:00 +30°C° 0 mm 5 mps 760 mmHg 44%
    12:00 +32°C° 0 mm 5 mps 760 mmHg 42%
    13:00 +32°C° 0 mm 4 mps 760 mmHg 40%
    14:00 +33°C° 0 mm 4 mps 760 mmHg 38%
    15:00 +33°C° 0 mm 4 mps 760 mmHg 38%
    16:00 +32°C° 0 mm 4 mps 760 mmHg 39%
    17:00 +32°C° 0 mm 4 mps 760 mmHg 39%
    18:00 +29°C° 0 mm 4 mps 760 mmHg 44%
    19:00 +27°C° 0 mm 3 mps 760 mmHg 48%
    20:00 +25°C° 0 mm 3 mps 760 mmHg 52%
    21:00 +24°C° 0 mm 3 mps 761 mmHg 54%
    22:00 +24°C° 0 mm 3 mps 761 mmHg 56%
    23:00 +22°C° 0 mm 3 mps 761 mmHg 59%

    Tomorrow, 23 August, Thursday

    Time Temperature Precipitation Wind Pressure Humidity
    00:00 +21°C° 0 mm 3 mps 761 mmHg 60%
    01:00 +21°C° 0 mm 3 mps 761 mmHg 62%
    02:00 +20°C° 0 mm 2 mps 761 mmHg 63%
    03:00 +20°C° 0 mm 2 mps 761 mmHg 63%
    04:00 +20°C° 0 mm 2 mps 761 mmHg 63%
    05:00 +19°C° 0 mm 2 mps 761 mmHg 63%
    06:00 +21°C° 0 mm 2 mps 761 mmHg 59%
    07:00 +22°C° 0 mm 3 mps 761 mmHg 55%
    08:00 +24°C° 0 mm 3 mps 761 mmHg 50%
    09:00 +26°C° 0 mm 3 mps 761 mmHg 46%
    10:00 +28°C° 0 mm 3 mps 761 mmHg 42%
    11:00 +29°C° 0 mm 3 mps 761 mmHg 38%
    12:00 +30°C° 0 mm 3 mps 760 mmHg 36%
    13:00 +31°C° 0 mm 3 mps 760 mmHg 34%
    14:00 +33°C° 0 mm 3 mps 759 mmHg 32%
    15:00 +31°C° 0 mm 3 mps 759 mmHg 32%
    16:00 +31°C° 0 mm 3 mps 759 mmHg 32%
    17:00 +31°C° 0 mm 3 mps 758 mmHg 31%
    18:00 +29°C° 0 mm 3 mps 758 mmHg 34%
    19:00 +27°C° 0 mm 3 mps 759 mmHg 37%
    20:00 +25°C° 0 mm 3 mps 759 mmHg 41%
    21:00 +24°C° 0 mm 2 mps 759 mmHg 42%
    22:00 +23°C° 0 mm 2 mps 759 mmHg 43%
    23:00 +21°C° 0 mm 2 mps 759 mmHg 45%

    Day after tomorrow, 24 August, Friday

    Time Temperature Precipitation Wind Pressure Humidity
    00:00 +21°C° 0 mm 1 mps 759 mmHg 46%
    01:00 +20°C° 0 mm 1 mps 759 mmHg 46%
    02:00 +20°C° 0 mm 1 mps 758 mmHg 47%
    03:00 +19°C° 0 mm 1 mps 758 mmHg 47%
    04:00 +19°C° 0 mm 1 mps 758 mmHg 47%
    05:00 +18°C° 0 mm 1 mps 758 mmHg 47%
    06:00 +20°C° 0 mm 1 mps 758 mmHg 45%
    07:00 +22°C° 0 mm 1 mps 758 mmHg 42%
    08:00 +24°C° 0 mm 2 mps 758 mmHg 40%
    09:00 +26°C° 0 mm 2 mps 758 mmHg 37%
    10:00 +28°C° 0 mm 2 mps 757 mmHg 35%
    11:00 +29°C° 0 mm 3 mps 757 mmHg 33%
    12:00 +30°C° 0 mm 3 mps 757 mmHg 30%
    13:00 +31°C° 0 mm 3 mps 756 mmHg 28%
    14:00 +33°C° 0 mm 3 mps 756 mmHg 26%
    15:00 +33°C° 0 mm 3 mps 756 mmHg 25%
    16:00 +33°C° 0 mm 3 mps 755 mmHg 25%
    17:00 +33°C° 0 mm 3 mps 755 mmHg 25%
    18:00 +29°C° 0 mm 3 mps 755 mmHg 27%
    19:00 +27°C° 0 mm 3 mps 755 mmHg 29%
    20:00 +24°C° 0 mm 3 mps 755 mmHg 32%
    21:00 +23°C° 0 mm 2 mps 755 mmHg 33%
    22:00 +21°C° 0 mm 2 mps 755 mmHg 33%
    23:00 +21°C° 0 mm 1 mps 755 mmHg 34%

    25 August, Saturday

    Time Temperature Precipitation Wind Pressure Humidity
    00:00 +21°C° 0 mm 1 mps 755 mmHg 35%
    01:00 +20°C° 0 mm 1 mps 755 mmHg 36%
    02:00 +20°C° 0 mm 1 mps 755 mmHg 37%
    03:00 +17°C° 0 mm 0 mps 755 mmHg 37%
    04:00 +17°C° 0 mm 0 mps 754 mmHg 38%
    05:00 +17°C° 0 mm 0 mps 754 mmHg 39%
    06:00 +21°C° 0 mm 1 mps 754 mmHg 36%
    07:00 +23°C° 0 mm 1 mps 754 mmHg 33%
    08:00 +25°C° 0 mm 1 mps 754 mmHg 30%
    09:00 +27°C° 0 mm 2 mps 754 mmHg 29%
    10:00 +29°C° 0 mm 2 mps 754 mmHg 28%
    11:00 +31°C° 0 mm 3 mps 754 mmHg 28%
    12:00 +33°C° 0 mm 3 mps 753 mmHg 27%
    13:00 +34°C° 0 mm 3 mps 753 mmHg 26%
    14:00 +34°C° 0 mm 3 mps 752 mmHg 25%
    15:00 +34°C° 0 mm 3 mps 752 mmHg 27%
    16:00 +34°C° 0 mm 3 mps 752 mmHg 28%
    17:00 +34°C° 0 mm 3 mps 752 mmHg 29%
    18:00 +31°C° 0 mm 2 mps 752 mmHg 35%
    19:00 +28°C° 0 mm 2 mps 752 mmHg 40%
    20:00 +26°C° 0 mm 2 mps 752 mmHg 46%
    21:00 +25°C° 0 mm 2 mps 752 mmHg 52%
    22:00 +24°C° 0 mm 2 mps 752 mmHg 59%
    23:00 +23°C° 0 mm 2 mps 752 mmHg 65%

    26 August, Sunday

    Time Temperature Precipitation Wind Pressure Humidity
    00:00 +21°C° 0 mm 2 mps 752 mmHg 69%
    01:00 +22°C° 0 mm 1 mps 752 mmHg 73%
    02:00 +21°C° 0 mm 1 mps 752 mmHg 77%
    03:00 +21°C° 0 mm 1 mps 752 mmHg 80%
    04:00 +20°C° 0 mm 1 mps 752 mmHg 82%
    05:00 +20°C° 0 mm 1 mps 752 mmHg 84%
    06:00 +22°C° 0 mm 1 mps 752 mmHg 77%
    07:00 +24°C° 0 mm 2 mps 752 mmHg 69%
    08:00 +26°C° 0 mm 2 mps 752 mmHg 62%
    09:00 +28°C° 0 mm 2 mps 752 mmHg 54%
    10:00 +29°C° 0 mm 2 mps 752 mmHg 46%
    11:00 +31°C° 0 mm 2 mps 752 mmHg 39%
    12:00 +32°C° 0 mm 2 mps 751 mmHg 35%
    13:00 +34°C° 0 mm 1 mps 751 mmHg 31%
    14:00 +35°C° 0 mm 1 mps 751 mmHg 27%
    15:00 +34°C° 0 mm 1 mps 750 mmHg 27%
    16:00 +34°C° 0 mm 1 mps 750 mmHg 27%
    17:00 +34°C° 0 mm 1 mps 750 mmHg 26%
    18:00 +32°C° 0 mm 1 mps 750 mmHg 30%
    19:00 +30°C° 0 mm 1 mps 751 mmHg 34%
    20:00 +27°C° 0 mm 1 mps 751 mmHg 38%
    21:00 +26°C° 0 mm 1 mps 751 mmHg 42%
    22:00 +26°C° 0 mm 1 mps 751 mmHg 46%
    23:00 +25°C° 0 mm 1 mps 751 mmHg 50%

    27 August, Monday

    Time Temperature Precipitation Wind Pressure Humidity
    00:00 +24°C° 0 mm 1 mps 751 mmHg 52%
    01:00 +23°C° 0 mm 1 mps 751 mmHg 55%
    02:00 +23°C° 0 mm 1 mps 751 mmHg 58%
    03:00 +22°C° 0 mm 1 mps 751 mmHg 62%
    04:00 +22°C° 0 mm 1 mps 752 mmHg 66%
    05:00 +21°C° 0 mm 1 mps 752 mmHg 70%
    06:00 +23°C° 0 mm 2 mps 752 mmHg 66%
    07:00 +24°C° 0 mm 2 mps 752 mmHg 63%
    08:00 +25°C° 0 mm 3 mps 753 mmHg 59%
    09:00 +27°C° 0 mm 3 mps 753 mmHg 54%
    10:00 +29°C° 0 mm 3 mps 753 mmHg 48%
    11:00 +31°C° 0 mm 3 mps 753 mmHg 43%
    12:00 +31°C° 0 mm 3 mps 753 mmHg 41%
    13:00 +31°C° 0 mm 3 mps 753 mmHg 39%
    14:00 +33°C° 0 mm 3 mps 752 mmHg 38%
    15:00 +30°C° 0 mm 4 mps 753 mmHg 44%
    16:00 +29°C° 0 mm 5 mps 753 mmHg 50%
    17:00 +27°C° 0 mm 7 mps 753 mmHg 55%
    18:00 +24°C° 0.5 mm 7 mps 753 mmHg 64%
    19:00 +22°C° 0.5 mm 7 mps 753 mmHg 73%
    20:00 +20°C° 0.5 mm 7 mps 754 mmHg 82%
    21:00 +20°C° 0.6 mm 7 mps 754 mmHg 84%
    22:00 +18°C° 0.6 mm 7 mps 754 mmHg 86%
    23:00 +18°C° 0.6 mm 7 mps 754 mmHg 88%
    Show more